Location: Berg
(48.4333°N, 13.9167°E)
Time: 08:57:50
(UTC+00:00)

Cosmos 2279 Rocket - Pass Details

Date: 18 September 2020
Orbit: 964 x 979 km, 82.9° (Epoch: 25 October)

Event Time Altitude Azimuth Distance (km) Brightness Sun altitude
Exits shadow 20:20:49 89° 89° (E) 986 3.9 -29.6°
Drops below altitude 10° 20:27:07 10° 9° (N) 2,743 6.7 -30.4°
Sets 20:29:38 0° 10° (N) 3,695 7.5 -30.7°
